Weather History for KTKC - April, 2013

Change the Weather History Date:

Wednesday, April 24, 2013

  Actual Average (KMML) Record (KMML)
Temperature  
Mean Temperature 32 °F -  
Max Temperature 40 °F 62 °F 80 °F (1990)
Min Temperature 24 °F 37 °F 19 °F (1967)
Degree Days  
Heating Degree Days 33    
Moisture  
Dew Point 25 °F    
Average Humidity 75    
Maximum Humidity 93    
Minimum Humidity 58    
Precipitation  
Precipitation 0.00 in - - ()
Sea Level Pressure  
Sea Level Pressure 30.01 in    
Wind  
Wind Speed 12 mph (WSW)    
Max Wind Speed 22 mph    
Max Gust Speed 30 mph    
Visibility 10 miles    
Events Rain    
Averages and records for this station are not official NWS values.
T = Trace of Precipitation, MM = Missing Value Source: NWS Daily Summary

Daily Weather History Graph

Daily Weather History Graph

Search for Another Location

Airport or City:

Trip Planner

Search our weather history database for the weather conditions in past years. The results will help you decide how hot, cold, wet, or windy it might be!

Date:

Astronomy

Apr. 24, 2013 Rise Set
Actual Time 6:23 AM CDT 8:18 PM CDT
Civil Twilight 5:52 AM CDT 8:49 PM CDT
Nautical Twilight 5:14 AM CDT 9:27 PM CDT
Astronomical Twilight 4:33 AM CDT 10:09 PM CDT
Moon 7:21 PM CDT (4/24) 5:30 AM CDT (4/24)
Length of Visible Light 14h 56m
Length of Day
13h 54m
Waxing Gibbous, 98% of the Moon is Illuminated
Apr 24
Waxing Gibbous
Apr 25
Full
May 2
Last Quarter
May 9
New
May 17
First Quarter

Hourly Weather History & Observations

Time (CDT) Temp. Windchill Dew Point Humidity Pressure Visibility Wind Dir Wind Speed Gust Speed Precip Events Conditions
12:18 AM 24.3 °F 16.3 °F 19.4 °F 82% 30.09 in 10.0 mi WSW 6.9 mph - N/A   Clear
12:37 AM 24.8 °F 14.6 °F 19.9 °F 82% 30.08 in 10.0 mi WSW 10.4 mph - N/A   Clear
12:58 AM 25.0 °F 14.2 °F 20.1 °F 82% 30.08 in 10.0 mi WSW 11.5 mph - N/A   Clear
1:18 AM 25.2 °F 14.4 °F 19.9 °F 81% 30.08 in 10.0 mi WSW 11.5 mph - N/A   Clear
1:38 AM 25.0 °F 14.2 °F 19.6 °F 80% 30.07 in 10.0 mi WSW 11.5 mph - N/A   Clear
1:57 AM 27.0 °F 18.0 °F 20.7 °F 77% 30.07 in 10.0 mi WSW 9.2 mph - N/A   Clear
2:17 AM 28.0 °F 18.6 °F 21.2 °F 76% 30.06 in 10.0 mi WSW 10.4 mph - N/A   Clear
2:37 AM 27.9 °F 18.4 °F 21.2 °F 76% 30.06 in 10.0 mi WSW 10.4 mph - N/A   Clear
2:57 AM 27.5 °F 18.0 °F 21.0 °F 77% 30.05 in 10.0 mi WSW 10.4 mph - N/A   Clear
3:18 AM 27.9 °F 17.8 °F 21.0 °F 75% 30.04 in 10.0 mi West 11.5 mph - N/A   Clear
3:37 AM 28.2 °F 18.9 °F 20.8 °F 74% 30.04 in 10.0 mi West 10.4 mph - N/A   Clear
3:58 AM 28.2 °F 18.9 °F 20.7 °F 73% 30.04 in 10.0 mi West 10.4 mph 16.1 mph N/A   Clear
4:18 AM 27.5 °F 18.0 °F 20.3 °F 74% 30.04 in 10.0 mi WSW 10.4 mph - N/A   Clear
4:37 AM 27.5 °F 18.0 °F 20.3 °F 74% 30.04 in 10.0 mi WSW 10.4 mph - N/A   Clear
5:18 AM 25.5 °F 14.9 °F 19.4 °F 78% 30.04 in 10.0 mi WSW 11.5 mph - N/A   Clear
5:37 AM 26.2 °F 15.8 °F 19.8 °F 76% 30.04 in 10.0 mi WSW 11.5 mph - N/A   Clear
5:58 AM 26.6 °F 14.7 °F 19.8 °F 75% 30.04 in 10.0 mi WSW 15.0 mph - N/A   Clear
6:18 AM 27.0 °F 15.2 °F 19.8 °F 74% 30.04 in 10.0 mi WSW 15.0 mph - N/A   Clear
6:38 AM 25.9 °F 14.3 °F 19.4 °F 76% 30.04 in 10.0 mi WSW 13.8 mph - N/A   Clear
6:58 AM 26.6 °F 15.7 °F 19.6 °F 75% 30.03 in 10.0 mi WSW 12.7 mph - N/A   Clear
7:17 AM 26.2 °F 15.2 °F 19.2 °F 75% 30.03 in 10.0 mi SW 12.7 mph - N/A   Clear
7:37 AM 26.6 °F 16.2 °F 19.4 °F 74% 30.02 in 10.0 mi SW 11.5 mph - N/A   Clear
7:58 AM 28.4 °F 17.0 °F 20.3 °F 72% 30.02 in 10.0 mi SW 15.0 mph - N/A   Clear
8:18 AM 29.7 °F 19.1 °F 20.8 °F 70% 30.02 in 10.0 mi SW 13.8 mph 19.6 mph N/A   Clear
8:37 AM 30.6 °F 20.2 °F 21.2 °F 68% 30.01 in 10.0 mi WSW 13.8 mph - N/A   Clear
8:58 AM 32.0 °F 22.1 °F 21.7 °F 66% 30.01 in 10.0 mi SW 13.8 mph - N/A   Clear
9:18 AM 33.1 °F 23.0 °F 22.5 °F 65% 30.01 in 10.0 mi WSW 15.0 mph 20.7 mph N/A   Clear
9:37 AM 34.3 °F 25.5 °F 23.2 °F 64% 30.00 in 10.0 mi WSW 12.7 mph - N/A   Clear
9:57 AM 35.2 °F 24.7 °F 23.0 °F 61% 29.99 in 10.0 mi SW 18.4 mph 23.0 mph N/A   Scattered Clouds
10:18 AM 34.7 °F 24.3 °F 23.2 °F 63% 29.99 in 10.0 mi WSW 17.3 mph 23.0 mph N/A   Scattered Clouds
10:38 AM 35.1 °F 25.2 °F 24.3 °F 65% 30.00 in 10.0 mi WSW 16.1 mph 20.7 mph N/A   Scattered Clouds
10:58 AM 36.0 °F 26.3 °F 24.4 °F 63% 30.00 in 10.0 mi SW 16.1 mph 21.9 mph N/A   Scattered Clouds
11:18 AM 36.5 °F 27.0 °F 24.6 °F 62% 29.99 in 10.0 mi SW 16.1 mph 23.0 mph N/A   Mostly Cloudy
11:37 AM 37.0 °F 27.4 °F 23.4 °F 58% 29.99 in 10.0 mi SW 17.3 mph - N/A   Mostly Cloudy
11:58 AM 37.0 °F 27.4 °F 24.8 °F 61% 29.99 in 10.0 mi SW 17.3 mph - N/A   Scattered Clouds
12:18 PM 37.2 °F 27.6 °F 24.8 °F 61% 29.98 in 10.0 mi SW 17.3 mph - N/A   Clear
12:38 PM 37.6 °F 27.7 °F 25.2 °F 61% 29.98 in 10.0 mi SSW 18.4 mph 21.9 mph N/A   Clear
12:57 PM 38.3 °F 29.3 °F 25.2 °F 59% 29.97 in 10.0 mi SSW 16.1 mph 21.9 mph N/A   Clear
1:17 PM 38.5 °F 28.9 °F 25.5 °F 60% 29.96 in 10.0 mi SW 18.4 mph - N/A   Clear
1:37 PM 38.7 °F 29.1 °F 26.2 °F 61% 29.96 in 10.0 mi SSW 18.4 mph - N/A   Clear
1:57 PM 39.4 °F 30.4 °F 26.6 °F 60% 29.95 in 10.0 mi SW 17.3 mph 25.3 mph N/A   Clear
2:18 PM 39.7 °F 30.9 °F 27.7 °F 62% 29.95 in 10.0 mi SW 17.3 mph - N/A   Clear
2:37 PM 40.1 °F 31.3 °F 27.9 °F 62% 29.94 in 10.0 mi SW 17.3 mph - N/A   Scattered Clouds
2:58 PM 40.6 °F 32.7 °F 28.4 °F 62% 29.94 in 10.0 mi SW 15.0 mph - N/A   Scattered Clouds
3:18 PM 40.3 °F 32.6 °F 28.8 °F 63% 29.96 in 10.0 mi WSW 13.8 mph 21.9 mph N/A   Scattered Clouds
3:37 PM 38.7 °F 30.5 °F 29.5 °F 70% 29.97 in 10.0 mi West 13.8 mph 23.0 mph N/A   Overcast
3:58 PM 33.8 °F - 32.0 °F 93% 29.97 in 2.0 mi Calm Calm - N/A   Overcast
4:18 PM 34.2 °F - 32.0 °F 92% 29.96 in 3.0 mi Calm Calm - N/A Rain Light Rain
4:37 PM 34.7 °F 27.5 °F 32.0 °F 90% 29.97 in 4.0 mi WNW 9.2 mph 16.1 mph N/A Rain Light Rain
4:57 PM 34.2 °F 26.8 °F 32.0 °F 92% 29.98 in 5.0 mi WNW 9.2 mph - N/A Rain Light Rain
5:17 PM 35.1 °F 30.1 °F 32.2 °F 89% 29.97 in 7.0 mi WNW 5.8 mph - N/A Rain Light Rain
5:38 PM 36.3 °F 32.5 °F 32.2 °F 85% 29.96 in 10.0 mi WSW 4.6 mph - N/A   Scattered Clouds
5:58 PM 36.7 °F 31.2 °F 32.2 °F 84% 29.97 in 10.0 mi West 6.9 mph - N/A   Clear
6:18 PM 36.5 °F 29.7 °F 32.0 °F 84% 29.98 in 10.0 mi West 9.2 mph - N/A   Clear
6:38 PM 36.0 °F 30.3 °F 32.0 °F 86% 29.98 in 10.0 mi West 6.9 mph - N/A   Clear
6:57 PM 35.2 °F 28.1 °F 31.8 °F 87% 29.98 in 10.0 mi West 9.2 mph - N/A   Mostly Cloudy
7:17 PM 35.2 °F 28.1 °F 31.1 °F 85% 29.99 in 10.0 mi West 9.2 mph - N/A   Overcast
7:38 PM 35.1 °F 27.9 °F 31.5 °F 87% 29.99 in 10.0 mi West 9.2 mph 17.3 mph N/A   Overcast
7:58 PM 34.7 °F 28.1 °F 31.5 °F 88% 29.99 in 10.0 mi West 8.1 mph - N/A   Light Drizzle
8:17 PM 34.2 °F 26.8 °F 31.8 °F 91% 30.00 in 10.0 mi West 9.2 mph 16.1 mph N/A   Overcast
8:38 PM 34.7 °F 24.7 °F 31.1 °F 87% 30.01 in 10.0 mi WNW 16.1 mph 21.9 mph N/A   Overcast
8:58 PM 33.6 °F 21.6 °F 29.1 °F 84% 30.03 in 10.0 mi NW 21.9 mph 29.9 mph N/A   Mostly Cloudy
9:58 PM 32.0 °F 21.2 °F 27.5 °F 83% 30.05 in 10.0 mi NW 16.1 mph - N/A   Clear
10:18 PM 31.5 °F 21.8 °F 27.1 °F 84% 30.07 in 10.0 mi NW 12.7 mph - N/A   Clear
10:37 PM 31.1 °F 20.9 °F 25.5 °F 80% 30.07 in 10.0 mi NW 13.8 mph - N/A   Clear
10:58 PM 30.9 °F 19.4 °F 23.9 °F 75% 30.08 in 10.0 mi NW 17.3 mph - N/A   Clear
11:18 PM 29.8 °F 19.3 °F 22.8 °F 75% 30.09 in 10.0 mi NW 13.8 mph - N/A   Clear
11:37 PM 29.1 °F 22.1 °F 22.8 °F 77% 30.09 in 10.0 mi WNW 6.9 mph - N/A   Clear
11:57 PM 29.1 °F 20.6 °F 22.1 °F 75% 30.09 in 10.0 mi WNW 9.2 mph - N/A   Clear